CLUSTER II-FM7 (SAMBA)

Last updated on Fri Dec 19 2025 00:03:36 GMT+0000 (Coordinated Universal Time)

1 26410U 00041A 25354.59902070 .00003830 00000+0 00000+0 0 9991 2 26410 147.7214 25.8632 8768954 241.6495 359.9177 0.44843706 19518
UTC large
Height (km)
Speed (km/s)
/
Latitude / Longitude
Inclination (degrees)
Orbital Period (minutes)
Azimuth
Elevation
Range (km)
Doppler Factor

Next 0 passes for location: London (51.5072 / 0.1276)

Sorry there are no passes over London.